Location: Newark
(48.9358°N, 1.4000°E)
Time: 02:31:49
(UTC+00:00)

N. Korean satellite - Pass Details

Date: 18 October 2019
Orbit: 456 x 506 km, 97.2° (Epoch: 14 November)

Event Time Altitude Azimuth Distance (km) Brightness Sun altitude
Rises 05:36:53 0° 17° (NNE) 2,545 10.4 -7.6°
Reaches altitude 10° 05:38:59 10° 23° (NNE) 1,669 9.5 -7.3°
Maximum altitude 05:42:29 49° 99° (E) 637 7.7 -6.7°
Drops below altitude 10° 05:46:00 10° 176° (S) 1,682 9.5 -6.1°
Sets 05:48:08 0° 182° (S) 2,567 10.3 -5.8°
